User: anonymous   Login
Location: Unspecified
(0.0000°N, 0.0000°E)
Time: 00:27:47
(UTC+00:00)
Language:

SES 6 - Orbit

View from above orbital plane
View from above orbital plane
View from above satellite
View from above satellite

Ground track
Ground track

The orbit data is extracted from the following two-line orbital elements,

1 39172U 13026A   15213.14852020 -.00000276  00000-0  00000+0 0  9993
2 39172 000.0527 276.1769 0002510 224.0068 182.2114 01.00272046  7891
Epoch (UTC): 01 August 2015 03:33:52
Eccentricity: 0.0002510
inclination: 0.0527°
perigee height: 35775 km
apogee height: 35797 km
right ascension of ascending node: 276.1769°
argument of perigee: 224.0068°
revolutions per day: 1.00272046
mean anomaly at epoch: 182.2114°
orbit number at epoch: 789

The dashed part of the orbit path shows where the satellite is in the earth's shadow,  

DLR